Theta_e
316 316 316 314 315 313 311 310 308 307 308 306 307 305 304 305 306 304 305 306 305 305 307 306 307 313 317 321 318 319 318 320 315 311 313 315 317 317 310 313 312 312 308
313 310 309 310 311 310 310 308 308 307 307 305 305 304 304 304 304 304 304 303 302 303 304 306 306 309 310 313 314 314 316 320 311 309 309 309 313 316 316 315 312 311 311
313 310 307 306 306 306 306 307 307 306 306 306 305 304 303 303 303 304 303 302 301 301 302 302 304 307 308 310 309 313 314 313 312 309 308 311 311 313 313 314 315 317 313
314 311 311 307 306 305 306 306 306 306 305 305 305 304 303 304 304 304 303 301 301 301 302 302 304 304 305 306 308 311 313 314 314 310 309 308 309 314 313 310 310 313 313
312 312 311 311 309 307 305 306 305 305 305 305 303 303 303 302 302 302 302 301 301 301 303 304 306 307 309 310 311 311 312 313 309 308 306 308 308 309 309 311 310 311 313
308 307 309 307 308 308 309 306 305 305 306 306 304 303 303 302 302 302 302 302 302 303 303 305 307 307 308 307 311 311 311 312 309 307 307 307 312 314 312 310 309 307 304
305 304 303 304 303 303 304 305 305 306 308 307 306 305 305 305 302 303 304 306 304 305 306 307 306 307 309 308 307 307 307 308 307 312 313 312 312 314 316 313 313 309 306
304 304 304 304 302 302 302 302 303 306 309 308 308 307 307 305 302 302 304 306 307 306 307 308 307 308 309 310 308 308 308 309 311 309 312 314 317 317 317 314 313 312 309
305 304 305 305 303 305 302 302 303 304 305 307 307 306 307 305 302 301 302 307 306 305 306 309 309 309 307 303 309 310 311 312 310 308 305 302 301 300 302 306 303 302 300
305 304 306 306 304 306 302 302 302 303 302 303 303 305 305 306 300 299 301 306 306 305 307 308 306 308 302 301 307 309 309 311 313 311 308 305 302 305 302 305 304 300 299
307 306 308 308 306 308 305 304 303 304 304 304 303 305 305 306 305 298 299 304 304 303 304 306 308 303 300 299 300 309 310 311 312 312 310 310 312 312 311 310 311 306 302
309 308 307 308 307 307 309 309 308 308 307 307 307 306 306 309 303 299 297 298 303 307 309 310 313 301 299 298 300 302 301 302 310 307 305 306 306 306 308 311 314 312 311
307 310 310 308 307 309 309 309 307 309 306 305 304 304 307 306 309 300 298 297 298 302 308 308 300 299 299 299 298 300 298 307 307 304 303 304 307 310 315 313 315 315 314
310 311 310 310 309 310 309 312 312 311 310 309 308 308 309 310 312 314 306 305 300 304 305 308 308 306 305 305 305 303 306 307 305 304 304 306 308 308 306 308 306 308 307
311 312 312 312 311 310 311 309 309 312 311 308 311 310 311 312 312 309 309 310 311 308 310 312 309 307 305 305 306 307 308 308 305 305 305 305 305 305 305 309 307 307 304
311 311 310 311 311 310 309 309 301 303 301 300 302 308 311 304 300 300 297 299 298 297 308 307 306 306 304 304 304 305 306 305 306 307 306 306 305 305 306 307 306 306 305
311 312 310 308 310 308 309 308 308 304 296 295 296 296 293 298 296 297 297 295 294 295 308 306 303 304 304 304 304 304 304 306 313 307 307 307 307 308 305 307 306 304 303
313 304 311 310 309 309 309 310 308 308 307 308 296 298 293 291 292 294 293 293 305 302 307 305 303 305 306 306 307 307 308 308 308 308 308 308 308 307 304 303 303 302 302
312 311 311 310 310 309 309 309 309 309 309 310 313 298 298 292 292 292 292 308 307 307 307 305 305 306 308 308 308 308 310 308 308 308 308 307 306 305 303 303 301 294 294
313 305 303 311 309 308 309 308 307 308 309 308 308 311 311 301 305 306 306 309 308 307 308 309 309 310 310 310 310 310 308 308 308 306 306 306 305 302 300 300 299 297 297
313 313 303 310 310 310 309 308 307 308 308 308 309 308 296 310 309 309 309 310 309 310 310 310 309 309 310 310 309 308 308 307 307 307 305 304 302 300 299 296 295 294 294
313 312 312 310 310 310 310 310 309 309 309 309 309 308 293 311 310 309 310 309 311 313 311 310 309 309 309 309 309 308 307 306 304 302 302 301 298 296 295 294 294 294 295
313 312 312 311 310 306 309 310 310 309 310 309 310 309 308 309 310 309 311 311 310 309 311 312 311 310 309 308 307 305 303 301 301 300 299 298 298 296 294 294 295 296 296
315 314 310 313 309 309 310 311 311 303 308 309 311 310 311 309 311 312 312 311 310 311 312 311 310 306 305 304 303 302 301 300 300 299 298 297 297 294 293 296 297 296 295
313 314 313 311 312 312 312 309 312 310 311 311 311 311 312 311 311 310 307 311 311 308 304 304 302 301 301 299 299 298 291 288 294 288 297 297 295 297 297 297 296 294 294
293 294 298 306 313 313 309 308 311 312 310 311 313 312 314 310 308 307 305 304 303 301 299 299 298 299 298 299 293 285 285 285 289 285 293 296 296 297 296 295 294 293 292
Wind_Speed
5 6 5 6 6 6 4 3 5 6 4 6 5 7 7 8 8 8 8 8 13 7 8 8 9 7 5 2 2 4 4 2 5 9 7 7 3 2 6 5 6 5 9
4 5 7 8 8 6 7 7 6 5 6 7 6 7 7 7 7 8 10 9 11 11 8 9 8 8 9 6 5 5 6 2 10 10 10 6 6 5 4 6 4 4 3
4 5 5 6 6 7 6 6 6 7 6 7 7 8 7 7 7 7 8 9 11 10 9 9 11 11 9 8 8 5 6 5 7 6 6 7 6 7 6 5 5 5 6
5 5 6 6 6 5 5 5 5 5 6 7 7 7 7 8 7 7 7 9 9 9 8 8 8 9 6 9 8 7 5 2 4 6 7 6 7 8 5 6 7 8 7
5 6 6 6 7 6 5 5 6 6 6 6 7 6 6 6 5 7 7 7 7 8 8 9 7 12 16 10 5 4 4 2 5 5 6 6 6 6 7 7 6 4 5
6 6 5 7 5 2 6 5 6 8 10 10 10 9 9 7 12 12 9 6 8 7 8 9 7 9 5 4 6 5 2 5 7 6 6 8 8 3 3 5 7 7 7
5 4 4 1 2 1 2 5 7 8 9 11 11 11 10 9 14 11 11 8 9 8 9 9 9 8 8 7 5 3 2 1 2 4 5 2 3 5 5 5 6 6 8
5 4 5 5 5 5 3 1 3 4 5 8 8 9 9 10 12 11 12 8 7 6 6 5 7 9 9 8 7 6 5 6 6 5 4 6 6 5 4 5 6 7 8
6 6 7 7 7 9 7 4 2 3 4 3 5 4 9 12 8 6 5 7 5 7 9 7 6 7 8 5 5 8 8 7 7 9 7 2 1 3 3 5 9 10 10
6 7 7 10 8 6 7 6 3 3 1 2 1 2 1 7 9 7 5 4 6 4 2 3 6 8 7 10 7 7 7 8 9 9 7 6 7 9 10 9 9 10 10
8 8 6 3 2 9 9 6 8 8 9 9 10 9 9 8 11 11 9 7 5 5 7 9 9 15 11 10 10 8 8 6 5 4 7 7 9 10 10 12 12 10 10
11 7 5 3 6 5 9 12 14 11 9 9 9 8 8 8 9 9 11 11 10 8 7 7 5 13 15 13 9 11 4 6 8 8 8 8 9 9 9 8 10 12 11
9 10 9 9 9 11 9 7 6 8 7 7 7 7 6 8 8 13 15 14 15 12 9 3 2 6 6 7 10 7 6 8 9 9 9 10 9 8 7 7 8 10 12
13 10 10 11 11 11 8 6 7 6 6 7 6 6 6 6 7 7 10 10 14 10 14 11 9 6 8 6 7 11 10 10 10 9 10 10 9 8 9 9 10 9 10
11 11 10 9 12 11 10 9 10 12 10 7 8 8 9 9 11 12 11 11 11 14 11 10 8 8 9 9 10 10 9 9 9 10 10 10 10 11 10 9 9 9 11
10 10 10 10 10 11 9 9 9 9 5 9 9 5 2 3 7 12 10 8 4 4 10 8 8 9 9 9 9 10 11 11 9 9 10 10 11 11 10 9 9 10 11
8 6 8 9 8 8 9 7 7 7 6 9 11 10 10 7 2 5 7 8 7 4 8 9 9 10 9 9 9 9 9 9 7 9 9 10 10 10 10 10 9 10 12
14 11 9 7 9 8 9 10 8 11 10 12 13 12 11 11 10 8 8 6 6 6 9 10 10 10 9 9 9 9 9 9 9 10 10 9 6 6 8 9 10 10 11
13 11 11 11 10 10 10 11 11 11 12 12 11 8 12 8 9 8 10 9 10 10 11 11 11 11 10 9 9 9 10 10 8 8 10 10 10 8 11 11 11 12 11
13 14 11 11 11 12 11 11 11 12 11 9 9 13 14 9 9 11 11 12 12 11 11 11 11 11 11 10 10 9 7 8 9 7 8 8 7 7 9 10 10 11 11
11 13 13 12 12 11 12 12 12 11 11 11 11 11 9 14 12 13 13 14 13 13 13 12 11 11 10 9 9 6 5 5 6 7 7 7 8 8 9 8 8 9 9
12 11 10 13 13 13 12 10 12 11 12 12 11 12 19 14 12 12 11 9 12 13 9 9 9 8 6 7 8 8 7 7 8 8 8 9 8 6 7 8 8 9 11
11 12 12 11 12 12 12 13 11 10 13 15 14 12 8 12 10 7 11 10 9 10 7 1 4 6 6 8 6 5 6 6 5 5 6 6 6 5 5 7 9 10 10
10 8 9 13 4 4 13 12 13 14 14 13 13 14 10 11 13 13 11 7 9 2 5 5 3 5 4 2 2 0 2 5 4 5 6 5 5 6 7 9 9 12 11
8 10 13 13 12 11 17 22 16 13 14 15 15 14 14 12 5 5 6 3 5 6 6 4 3 5 4 2 1 2 7 3 4 4 6 8 8 10 9 9 11 11 13
11 11 10 10 8 9 6 7 12 10 5 13 14 13 3 4 7 9 9 6 4 5 8 5 6 6 5 4 8 9 6 3 4 3 7 9 10 9 10 9 13 11 14
Wind_Direction
24 25 14 29 36 50 58 89 84 89 97 101 121 129 116 120 102 94 93 82 82 57 77 45 17 2 315 46 66 146 129 262 212 121 130 130 188 210 146 222 165 221 169
48 50 46 41 41 60 58 70 79 85 93 96 92 83 82 84 100 110 116 107 94 74 58 73 59 44 9 355 75 84 84 8 106 142 130 135 200 228 197 207 250 241 249
74 94 90 82 75 65 74 68 85 83 90 109 117 91 92 83 83 88 96 100 85 81 70 49 53 54 42 21 23 38 64 101 106 109 137 161 191 193 209 244 235 230 253
139 124 118 113 106 96 88 94 90 99 103 88 89 97 83 90 94 99 91 83 85 82 78 77 66 64 45 29 356 3 27 73 155 134 177 181 193 185 216 239 208 211 236
25 121 132 141 143 137 132 131 135 131 128 122 119 115 115 108 101 99 98 103 115 135 152 143 167 164 177 178 174 179 190 151 176 172 182 189 192 176 201 218 224 279 264
81 54 45 43 25 169 161 170 164 177 171 163 154 152 158 157 150 149 140 152 154 169 165 167 166 164 157 115 136 123 6 171 189 196 200 208 210 185 264 253 246 247 263
121 113 104 131 112 92 192 217 226 212 186 176 171 168 168 152 167 187 189 169 169 188 169 174 164 176 179 182 190 207 208 41 331 336 289 304 254 230 268 289 272 262 257
164 185 182 189 173 174 175 110 33 300 206 173 177 173 158 153 171 179 185 179 178 166 148 161 199 160 200 187 185 199 224 227 239 240 247 277 284 300 263 270 281 287 273
195 212 223 188 194 182 183 191 92 8 8 100 104 144 161 141 156 158 175 156 166 186 202 205 209 185 186 200 223 207 215 229 187 201 215 198 343 354 4 295 266 261 270
215 226 236 168 195 166 182 183 138 243 154 57 42 200 182 158 140 143 196 233 195 213 203 251 250 253 185 193 213 238 241 245 232 199 213 231 238 243 219 237 264 270 274
213 220 242 118 243 159 174 181 191 207 192 190 189 204 189 190 164 177 196 245 243 207 230 212 214 210 202 206 208 234 250 303 275 251 266 248 228 220 222 209 218 235 259
187 193 157 167 190 224 197 186 193 199 190 192 197 194 199 207 224 195 199 215 232 253 268 259 244 197 200 201 201 235 267 292 260 258 259 252 249 252 252 243 229 216 236
194 191 186 178 218 191 220 229 223 206 226 209 203 203 208 200 214 208 206 211 231 248 263 320 298 141 152 190 218 221 211 241 248 251 250 253 254 257 268 281 266 257 256
190 194 189 189 207 211 208 214 223 211 226 225 216 205 212 226 219 212 215 218 233 240 246 242 220 191 224 251 207 212 229 242 244 249 255 262 273 280 271 262 264 263 266
198 192 206 217 210 222 225 218 213 203 194 209 216 210 206 212 211 197 203 211 212 208 226 230 203 225 224 220 226 235 216 223 235 248 264 274 267 266 267 264 265 270 269
219 226 206 199 210 206 207 209 197 139 172 182 173 208 140 181 217 182 145 134 107 134 207 249 238 234 230 230 226 222 218 224 241 249 253 258 265 271 278 281 279 277 281
234 227 239 222 229 219 192 206 210 197 187 192 192 212 193 143 95 146 150 145 145 171 239 256 242 248 240 239 245 249 249 250 251 257 269 273 271 268 268 272 284 283 280
213 217 223 215 254 206 219 194 211 224 209 218 220 218 213 185 182 181 150 158 202 216 255 246 247 251 248 247 247 250 254 258 260 262 269 277 285 287 291 287 290 296 299
220 225 209 245 227 234 223 208 228 234 207 223 212 178 214 170 175 174 168 223 232 233 211 224 244 257 259 260 262 265 265 268 283 306 303 311 315 323 310 309 312 306 314
221 241 234 216 218 231 230 236 228 228 224 240 234 187 185 151 188 194 202 213 232 248 262 254 236 233 241 247 254 259 287 296 303 333 333 334 327 325 303 304 315 309 302
219 214 212 240 247 231 221 227 234 236 229 233 227 235 159 184 199 212 209 209 219 228 227 241 258 257 251 260 277 296 308 320 307 316 322 326 302 304 318 305 293 284 286
223 228 197 212 229 237 234 235 228 240 270 255 241 237 164 198 221 232 237 240 215 227 237 240 245 257 295 316 351 350 327 328 339 324 304 306 314 315 294 289 289 287 281
219 212 235 221 221 241 239 223 224 237 220 237 255 263 193 216 227 252 274 240 245 255 253 338 305 291 339 23 21 354 328 322 317 312 303 296 284 292 295 284 285 286 291
259 239 243 241 177 306 297 243 238 239 251 241 229 241 236 195 235 220 229 251 254 214 66 63 40 24 18 348 62 281 278 354 328 323 339 307 289 282 283 273 284 284 282
279 260 256 256 250 220 204 234 252 258 239 225 238 248 241 246 116 89 357 360 81 86 95 102 103 107 128 141 23 346 80 48 310 340 283 271 261 268 282 277 284 295 309
19 4 10 350 303 290 305 315 300 259 285 302 228 217 213 61 106 99 106 127 131 124 121 128 145 146 170 171 65 61 48 10 315 352 307 290 276 265 270 302 312 312 308